GW2224 Weather Reports


time (UTC)temp
F
wind
direction
speed
knots
gust
knots
rain 1hr
in
rain 24hr
in
rain mn
in
humidity
%
barometer
mb
20260506202209 58 205 7.8 16.5 0.00 0.02 0.02 97 1008.7
20260506201707 58 207 6.1 13.0 0.00 0.02 0.02 97 1008.8
20260506201203 58 208 7.0 16.5 0.00 0.02 0.02 97 1008.8
20260506200700 58 200 7.8 13.9 0.00 0.02 0.02 97 1008.9
20260506200156 58 215 6.1 14.8 0.00 0.02 0.02 97 1009.0
20260506195652 58 257 5.2 14.8 0.00 0.02 0.02 97 1009.0
20260506195148 58 190 8.7 14.8 0.00 0.02 0.02 98 1008.8
20260506194641 58 203 6.1 13.0 0.00 0.02 0.02 97 1009.3
20260506194137 58 226 8.7 15.6 0.00 0.02 0.02 98 1009.4
20260506193635 58 210 9.6 18.2 0.00 0.02 0.02 97 1009.4
20260506193132 58 195 5.2 18.2 0.00 0.02 0.02 98 1009.4
20260506192629 57 196 3.5 21.7 0.00 0.02 0.02 98 1009.4
20260506192124 57 226 11.3 14.8 0.00 0.02 0.02 98 1009.3
20260506191621 57 216 5.2 15.6 0.00 0.02 0.02 99 1009.3
20260506191117 57 204 8.7 16.5 0.00 0.02 0.02 99 1009.1
20260506190615 57 178 12.2 13.0 0.00 0.02 0.02 99 1009.4
20260506190112 57 213 9.6 12.2 0.00 0.02 0.02 99 1009.6
20260506185609 57 202 8.7 13.0 0.00 0.02 0.02 99 1009.7
20260506185105 57 214 13.9 13.9 0.00 0.02 0.02 99 1009.9
20260506184603 57 202 6.1 14.8 0.00 0.02 0.02 99 1009.9
20260506184100 57 221 10.4 13.0 0.00 0.02 0.02 99 1009.9
20260506183556 57 193 7.8 12.2 0.00 0.02 0.02 99 1010.0
20260506183052 57 210 7.0 11.3 0.02 0.02 0.02 99 1010.1
20260506182550 57 226 7.0 10.4 0.09 0.02 0.02 98 1009.9
20260506182047 57 185 5.2 13.9 0.09 0.02 0.02 98 1010.3
20260506181545 57 223 5.2 17.4 0.02 0.01 0.01 98 1010.5
20260506181041 57 194 11.3 15.6 0.00 0.00 0.00 97 1010.4
20260506180538 57 220 7.0 13.9 0.00 0.00 0.00 97 1010.4
20260506180035 57 188 10.4 15.6 0.02 0.00 0.00 97 1010.4
20260506175531 57 197 6.1 15.6 0.02 0.00 0.00 97 1010.5
20260506175027 57 179 8.7 19.1 0.00 0.00 0.00 97 1010.6
20260506174527 58 228 7.8 14.8 0.00 0.00 0.00 97 1010.5
20260506174022 58 195 9.6 15.6 0.00 0.00 0.00 97 1010.7
20260506173520 58 206 4.3 13.0 0.00 0.00 0.00 97 1010.6
20260506173017 58 218 7.8 15.6 0.00 0.00 0.00 96 1010.7
20260506172514 58 237 9.6 17.4 0.00 0.00 0.00 96 1010.4
20260506172010 58 215 13.0 13.9 0.00 0.00 0.00 95 1010.6
20260506171508 58 207 7.8 19.1 0.00 0.00 0.00 95 1010.3
20260506171005 58 193 7.0 16.5 0.00 0.00 0.00 94 1010.8
20260506170501 58 207 12.2 21.7 0.00 0.00 0.00 93 1010.8
20260506165954 58 203 12.2 17.4 0.00 0.00 0.00 93 1010.9
20260506165452 59 200 9.6 18.2 0.00 0.00 0.00 92 1010.9
20260506164948 59 207 9.6 18.2 0.00 0.00 0.00 92 1011.3
20260506164445 59 257 6.1 16.5 0.00 0.00 0.00 92 1011.4
20260506163943 58 218 8.7 16.5 0.00 0.00 0.00 92 1011.6
20260506163437 58 227 7.8 17.4 0.00 0.00 0.00 92 1011.5
20260506162927 58 202 9.6 14.8 0.00 0.00 0.00 92 1011.5
20260506162425 59 192 4.3 17.4 0.00 0.00 0.00 92 1011.5
20260506161922 58 246 4.3 16.5 0.00 0.00 0.00 92 1011.5
20260506161420 58 190 7.8 17.4 0.00 0.00 0.00 92 1011.7
20260506160917 58 222 6.1 14.8 0.00 0.00 0.00 93 1011.6
20260506160414 58 255 9.6 17.4 0.00 0.00 0.00 93 1011.6
20260506155912 58 199 13.9 16.5 0.00 0.00 0.00 93 1011.7
20260506155408 58 189 11.3 13.9 0.00 0.00 0.00 93 1011.9
20260506153525 58 208 12.2 15.6 0.00 0.00 0.00 93 1012.1
20260506153022 58 208 10.4 15.6 0.00 0.00 0.00 92 1012.0
20260506152519 58 197 11.3 14.8 0.00 0.00 0.00 92 1012.2
20260506152017 59 220 11.3 15.6 0.00 0.00 0.00 91 1011.9
20260506151515 59 204 11.3 13.0 0.00 0.00 0.00 92 1012.2
20260506151012 58 228 7.8 14.8 0.00 0.00 0.00 92 1012.1
20260506150508 58 183 9.6 18.2 0.00 0.00 0.00 92 1012.3
20260506150005 59 223 7.8 20.0 0.00 0.00 0.00 91 1012.2
20260506145501 59 201 7.8 14.8 0.00 0.00 0.00 90 1012.3
20260506144959 59 211 7.8 13.0 0.00 0.00 0.00 90 1012.2
20260506144455 59 190 4.3 15.6 0.00 0.00 0.00 90 1012.3
20260506143953 60 201 8.7 16.5 0.00 0.00 0.00 89 1012.2
20260506143450 60 210 11.3 13.0 0.00 0.00 0.00 89 1012.5
20260506142949 59 226 6.1 19.1 0.00 0.00 0.00 89 1012.3
20260506142447 60 209 8.7 15.6 0.00 0.00 0.00 89 1012.4
20260506141944 60 176 7.8 10.4 0.00 0.00 0.00 89 1012.3
20260506141442 60 228 5.2 10.4 0.00 0.00 0.00 90 1012.3
20260506140940 59 229 3.5 11.3 0.00 0.00 0.00 91 1012.4
20260506140436 58 196 10.4 13.9 0.00 0.00 0.00 91 1012.4
20260506135933 58 186 6.1 18.2 0.00 0.00 0.00 92 1012.1
20260506135431 58 201 6.1 14.8 0.00 0.00 0.00 93 1012.4
20260506134927 58 194 5.2 13.0 0.00 0.00 0.00 92 1012.6
20260506134423 58 218 7.8 20.0 0.00 0.00 0.00 92 1012.6
20260506133920 58 213 4.3 14.8 0.00 0.00 0.00 92 1012.7
20260506133417 58 207 8.7 13.9 0.00 0.00 0.00 92 1012.6
20260506132913 58 201 7.8 13.9 0.00 0.00 0.00 92 1012.6
20260506132411 58 201 4.3 17.4 0.00 0.00 0.00 92 1012.7
20260506131909 59 240 6.1 12.2 0.00 0.00 0.00 91 1012.8
20260506131404 59 190 4.3 13.0 0.00 0.00 0.00 91 1012.8
20260506130902 58 189 7.8 16.5 0.00 0.00 0.00 92 1012.6
20260506130358 58 219 17.4 17.4 0.00 0.00 0.00 92 1012.6
20260506125856 58 207 7.8 21.7 0.00 0.00 0.00 93 1012.6
20260506125354 59 204 18.2 18.2 0.00 0.00 0.00 92 1012.5
20260506124852 58 212 7.8 13.0 0.00 0.00 0.00 93 1012.6
20260506124349 58 188 7.8 15.6 0.00 0.00 0.00 93 1012.8
20260506123847 58 246 6.1 17.4 0.00 0.00 0.00 93 1012.7
20260506123345 58 215 5.2 12.2 0.00 0.00 0.00 94 1012.6
20260506122842 57 199 11.3 13.9 0.00 0.00 0.00 94 1012.7
20260506122339 57 187 7.0 15.6 0.00 0.00 0.00 94 1012.7
20260506121837 57 225 12.2 18.2 0.00 0.00 0.00 94 1012.6
20260506121333 58 209 10.4 16.5 0.00 0.00 0.00 94 1012.5
20260506120831 58 189 6.1 13.9 0.00 0.00 0.00 94 1012.4
20260506120328 57 230 4.3 13.9 0.00 0.00 0.00 95 1012.5
20260506115826 57 199 7.8 17.4 0.00 0.00 0.00 95 1012.3
20260506115324 57 186 8.7 15.6 0.00 0.00 0.00 96 1012.4
20260506114821 57 195 11.3 13.9 0.00 0.00 0.00 96 1012.3
20260506114319 57 205 7.8 12.2 0.00 0.00 0.00 96 1012.3
20260506113817 57 202 8.7 16.5 0.00 0.00 0.00 96 1012.4
20260506113315 57 192 5.2 15.6 0.00 0.00 0.00 97 1012.2
20260506112811 57 196 7.0 12.2 0.00 0.00 0.00 97 1012.3
20260506112308 56 189 8.7 18.2 0.00 0.00 0.00 97 1012.5
20260506111806 57 194 7.8 17.4 0.00 0.00 0.00 97 1012.4
20260506111304 56 214 10.4 16.5 0.00 0.00 0.00 97 1012.5
20260506110801 56 194 7.8 13.0 0.00 0.00 0.00 97 1012.4
20260506110258 56 194 13.9 17.4 0.00 0.00 0.00 97 1012.3
20260506105754 57 183 9.6 17.4 0.00 0.00 0.00 98 1012.4
20260506105251 56 200 9.6 19.1 0.00 0.00 0.00 98 1012.4
20260506104749 56 197 4.3 19.1 0.00 0.00 0.00 98 1012.6
20260506104247 56 185 7.0 14.8 0.00 0.00 0.00 98 1012.4
20260506103744 56 194 3.5 14.8 0.00 0.00 0.00 98 1012.1
20260506103241 56 202 8.7 15.6 0.00 0.00 0.00 98 1012.2
20260506102739 56 154 6.1 19.1 0.00 0.00 0.00 98 1012.2
20260506102237 56 215 12.2 17.4 0.00 0.00 0.00 98 1012.2
20260506101733 56 202 7.0 16.5 0.00 0.00 0.00 98 1012.2
20260506101229 56 195 6.1 14.8 0.00 0.00 0.00 98 1012.1
20260506100727 56 187 12.2 18.2 0.00 0.00 0.00 98 1012.2
20260506100226 56 207 5.2 21.7 0.00 0.00 0.00 98 1012.1
20260506095724 56 211 13.9 14.8 0.00 0.00 0.00 98 1012.0
20260506095220 56 234 5.2 18.2 0.00 0.00 0.00 98 1011.9
20260506094717 56 187 7.8 16.5 0.00 0.00 0.00 98 1011.7
20260506094215 56 198 9.6 13.0 0.00 0.00 0.00 98 1011.9
20260506093714 56 209 6.1 15.6 0.00 0.00 0.00 98 1012.0
20260506093210 56 181 8.7 15.6 0.00 0.00 0.00 98 1012.1
20260506092708 56 211 7.8 13.0 0.00 0.00 0.00 98 1012.2
20260506092205 56 188 6.1 16.5 0.00 0.00 0.00 98 1012.1
20260506091703 56 202 6.1 14.8 0.00 0.00 0.00 98 1012.2
20260506091200 56 203 3.5 18.2 0.00 0.00 0.00 98 1012.4
20260506090658 56 203 6.1 13.9 0.00 0.00 0.00 98 1012.3
20260506090154 56 214 7.8 14.8 0.00 0.00 0.00 98 1012.6
20260506085651 56 183 5.2 16.5 0.00 0.00 0.00 98 1012.4
20260506085147 56 213 7.0 16.5 0.00 0.00 0.00 98 1012.6
20260506084644 56 223 5.2 14.8 0.00 0.00 0.00 98 1012.7
20260506084141 56 199 8.7 14.8 0.00 0.00 0.00 98 1012.6
20260506083638 56 191 9.6 12.2 0.00 0.00 0.00 98 1012.5
20260506083136 56 209 3.5 13.0 0.00 0.00 0.00 98 1012.6
20260506082632 56 197 5.2 20.9 0.00 0.00 0.00 98 1012.6
20260506082128 56 196 2.6 12.2 0.00 0.00 0.00 98 1012.5
20260506081626 56 193 6.1 12.2 0.00 0.00 0.00 98 1012.7
20260506081124 56 190 6.1 12.2 0.00 0.00 0.00 98 1012.8
20260506080621 56 201 11.3 12.2 0.00 0.00 0.00 98 1012.7
20260506080117 56 232 5.2 15.6 0.00 0.00 0.00 97 1012.6
20260506073101 56 196 7.0 18.2 0.00 0.00 0.00 97 1012.8
20260506072558 57 205 7.8 16.5 0.00 0.00 0.00 97 1012.8
20260506072056 57 234 5.2 15.6 0.00 0.00 0.00 97 1012.6
20260506071553 57 211 4.3 13.9 0.00 0.00 0.00 97 1012.6
20260506071051 57 222 5.2 19.1 0.00 0.00 0.00 97 1012.9
20260506070548 57 185 13.0 14.8 0.00 0.00 0.00 97 1012.7
20260506062022 57 265 6.1 15.6 0.00 0.00 0.00 95 1012.9
20260506061518 57 209 17.4 17.4 0.00 0.00 0.00 95 1013.0
20260506061016 57 189 13.9 15.6 0.00 0.00 0.00 95 1012.9
20260506060514 57 195 6.1 19.1 0.00 0.00 0.00 95 1013.0
20260506050942 57 203 7.8 13.9 0.00 0.00 0.00 93 1013.5
20260506050441 57 196 10.4 17.4 0.00 0.00 0.00 93 1013.4
20260506044931 57 247 7.8 14.8 0.00 0.00 0.00 93 1013.6
20260506044429 57 195 11.3 17.4 0.00 0.00 0.00 93 1013.7
20260506043925 57 209 7.8 18.2 0.00 0.00 0.00 93 1013.6
20260506043423 57 227 7.8 19.1 0.00 0.00 0.00 93 1013.5
20260506042921 57 212 8.7 22.6 0.00 0.00 0.00 93 1013.4
20260506042420 57 213 6.1 16.5 0.00 0.00 0.00 93 1013.5
20260506041918 57 186 8.7 18.2 0.00 0.00 0.00 93 1013.5
20260506041415 57 183 11.3 19.1 0.00 0.00 0.00 93 1013.5
20260506040912 57 228 7.0 14.8 0.00 0.00 0.00 93 1013.6
20260506040409 57 192 6.1 14.8 0.00 0.00 0.00 94 1013.6
20260506035905 57 203 10.4 14.8 0.00 0.00 0.00 94 1013.5
20260506035403 57 193 9.6 13.9 0.00 0.00 0.00 94 1013.6
20260506034859 57 228 6.1 16.5 0.00 0.00 0.00 93 1013.7
20260506034357 57 190 6.1 16.5 0.00 0.00 0.00 93 1013.4
20260506033854 57 198 10.4 16.5 0.00 0.00 0.00 93 1013.6
20260506033351 57 199 5.2 13.9 0.00 0.00 0.00 93 1013.7
20260506032848 57 197 7.0 15.6 0.00 0.00 0.00 93 1013.6
20260506032344 57 190 3.5 14.8 0.00 0.00 0.00 92 1013.8
20260506031841 57 191 8.7 18.2 0.00 0.00 0.00 92 1013.5
20260506031339 57 193 9.6 17.4 0.00 0.00 0.00 92 1013.7
20260506030836 57 185 6.1 15.6 0.00 0.00 0.00 92 1013.7
20260506030334 57 199 7.0 15.6 0.00 0.00 0.00 92 1013.7
20260506025830 57 201 7.8 18.2 0.00 0.00 0.00 92 1013.6
20260506025327 57 241 6.1 18.2 0.00 0.00 0.00 92 1013.6
20260506024824 57 206 10.4 13.0 0.00 0.00 0.00 92 1013.6
20260506024321 57 255 7.8 13.0 0.00 0.00 0.00 92 1013.6
20260506023817 57 196 9.6 14.8 0.00 0.00 0.00 92 1013.6
20260506023314 57 205 6.1 20.0 0.00 0.00 0.00 92 1013.8
20260506022811 57 202 4.3 14.8 0.00 0.00 0.00 92 1013.9
20260506022309 57 203 7.0 14.8 0.00 0.00 0.00 91 1013.8
20260506021807 57 202 7.8 14.8 0.00 0.00 0.00 91 1013.7
20260506021304 58 181 6.1 17.4 0.00 0.00 0.00 91 1013.7
20260506020800 58 226 7.0 17.4 0.00 0.00 0.00 91 1013.8
20260506020258 58 214 7.8 14.8 0.00 0.00 0.00 91 1013.9
20260506015755 57 222 6.1 16.5 0.00 0.00 0.00 91 1013.6
20260506015253 57 233 5.2 17.4 0.00 0.00 0.00 91 1013.5
20260506014749 57 196 5.2 16.5 0.00 0.00 0.00 91 1013.6
20260506014246 57 226 7.0 15.6 0.00 0.00 0.00 91 1013.4
20260506013743 57 192 3.5 14.8 0.00 0.00 0.00 91 1013.4
20260506013240 57 205 8.7 14.8 0.00 0.00 0.00 91 1013.4
20260506012736 58 225 6.1 15.6 0.00 0.00 0.00 90 1013.4
20260506012233 58 194 16.5 21.7 0.00 0.00 0.00 90 1013.3
20260506011731 58 212 5.2 19.1 0.00 0.00 0.00 90 1013.4
20260506011226 58 210 4.3 20.9 0.00 0.00 0.00 90 1013.3
20260506010725 58 200 9.6 15.6 0.00 0.00 0.00 91 1013.3
20260506010222 58 207 6.1 12.2 0.00 0.00 0.00 91 1013.2
20260506005720 58 199 9.6 14.8 0.00 0.00 0.00 91 1013.3
20260506005216 58 201 9.6 16.5 0.00 0.00 0.00 91 1013.1
20260506004712 58 190 4.3 17.4 0.00 0.00 0.00 91 1012.9
20260506004210 58 196 7.0 20.0 0.00 0.00 0.00 91 1013.1
20260506003706 58 220 7.8 15.6 0.00 0.00 0.00 91 1013.2
20260506003202 58 191 16.5 16.5 0.00 0.00 0.00 91 1013.0
20260506002653 58 206 9.6 18.2 0.00 0.00 0.00 91 1013.0
20260506002149 58 202 5.2 13.0 0.00 0.00 0.00 90 1013.2
20260506001645 58 190 7.8 21.7 0.00 0.00 0.00 90 1013.1
20260506001143 58 215 7.8 14.8 0.00 0.00 0.00 90 1013.0
20260506000639 58 211 9.6 15.6 0.00 0.00 0.00 90 1012.9
20260506000137 58 234 9.6 17.4 0.00 0.00 0.00 90 1013.0
20260505235635 58 213 8.7 15.6 0.00 0.00 0.00 89 1012.8
20260505235132 58 203 5.2 16.5 0.00 0.00 0.00 89 1013.0
20260505234628 59 213 12.2 14.8 0.00 0.00 0.00 88 1012.7
20260505234125 59 200 4.3 16.5 0.00 0.00 0.00 88 1012.7
20260505233623 59 197 3.5 20.9 0.00 0.00 0.00 88 1012.6
20260505233120 59 195 10.4 17.4 0.00 0.00 0.00 87 1012.6
20260505232618 59 199 9.6 19.1 0.00 0.00 0.00 87 1012.7
20260505232115 59 185 8.7 18.2 0.00 0.00 0.00 87 1012.6
20260505231612 59 211 9.6 22.6 0.00 0.00 0.00 87 1012.4
20260505231110 59 202 7.0 20.9 0.00 0.00 0.00 87 1012.4
20260505230608 59 178 9.6 16.5 0.00 0.00 0.00 86 1012.5
20260505230104 60 218 7.0 14.8 0.00 0.00 0.00 86 1012.5
20260505225601 59 185 6.1 20.9 0.00 0.00 0.00 86 1012.4
20260505225056 60 196 12.2 18.2 0.00 0.00 0.00 85 1012.3
20260505224554 60 196 14.8 19.1 0.00 0.00 0.00 85 1012.2
20260505224051 60 177 6.1 18.2 0.00 0.00 0.00 85 1012.4
20260505223548 60 230 7.8 21.7 0.00 0.00 0.00 85 1012.2
20260505223044 60 199 7.8 19.1 0.00 0.00 0.00 84 1012.2
20260505222541 60 199 13.0 17.4 0.00 0.00 0.00 84 1012.3
20260505222037 60 210 10.4 18.2 0.00 0.00 0.00 84 1012.3
20260505221534 60 210 7.0 16.5 0.00 0.00 0.00 84 1012.3
20260505221030 60 242 5.2 17.4 0.00 0.00 0.00 84 1012.1
20260505220528 60 209 14.8 20.0 0.00 0.00 0.00 84 1012.1
20260505220026 60 208 15.6 18.2 0.00 0.00 0.00 84 1011.8
20260505215523 60 201 11.3 24.3 0.00 0.00 0.00 84 1012.0
20260505215020 60 190 6.1 17.4 0.00 0.00 0.00 84 1012.1
20260505214519 60 205 8.7 20.0 0.00 0.00 0.00 84 1011.8
20260505214016 60 174 8.7 21.7 0.00 0.00 0.00 83 1011.8
20260505213514 60 209 7.8 23.5 0.00 0.00 0.00 83 1011.9
20260505213009 60 182 13.9 15.6 0.00 0.00 0.00 83 1011.7
20260505212506 61 182 13.0 23.5 0.00 0.00 0.00 83 1011.7
20260505212003 61 153 5.2 21.7 0.00 0.00 0.00 83 1011.8
20260505211501 61 179 10.4 21.7 0.00 0.00 0.00 82 1011.9
20260505210957 61 201 9.6 23.5 0.00 0.00 0.00 82 1011.8
20260505210454 61 201 12.2 20.0 0.00 0.00 0.00 82 1011.6
20260505205950 61 186 13.0 20.0 0.00 0.00 0.00 82 1011.7
20260505205449 62 185 3.5 17.4 0.00 0.00 0.00 81 1011.6
20260505204945 62 195 11.3 14.8 0.00 0.00 0.00 81 1011.7
20260505204444 62 177 9.6 17.4 0.00 0.00 0.00 81 1011.6
20260505203940 61 191 9.6 17.4 0.00 0.00 0.00 81 1011.7
20260505203436 61 219 5.2 17.4 0.00 0.00 0.00 82 1011.7
20260505202932 61 204 6.1 20.9 0.00 0.00 0.00 82 1011.7
20260505202429 62 205 6.1 19.1 0.00 0.00 0.00 81 1011.8